Weather History for College Park, MD

Change the Weather History Date:

Thursday, May 16, 2013

  Actual Average Record
Temperature  
Mean Temperature 74 °F -  
Max Temperature 84 °F 75 °F 91 °F (1962)
Min Temperature 63 °F 53 °F 38 °F (1973)
Cooling Degree Days 8    
Growing Degree Days 24 (Base 50)    
Moisture  
Dew Point 62 °F    
Average Humidity 67    
Maximum Humidity 100    
Minimum Humidity 41    
Precipitation  
Precipitation 0.00 in - - ()
Sea Level Pressure  
Sea Level Pressure 29.83 in    
Wind  
Wind Speed 2 mph (West)    
Max Wind Speed 15 mph    
Max Gust Speed 26 mph    
Visibility 10 miles    
Events      
Averages and records for this station are not official NWS values.
T = Trace of Precipitation, MM = Missing Value Source: NWS Daily Summary

Daily Weather History Graph

Daily Weather History Graph

Search for Another Location

Airport:

Trip Planner

Search our weather history database for the weather conditions in past years. The results will help you decide how hot, cold, wet, or windy it might be!

Date:

Astronomy

May. 16, 2013 Rise Set
Actual Time 5:53 AM EDT 8:14 PM EDT
Civil Twilight 5:23 AM EDT 8:44 PM EDT
Nautical Twilight 4:46 AM EDT 9:22 PM EDT
Astronomical Twilight 4:05 AM EDT 10:03 PM EDT
Moon 11:24 AM EDT (5/16) 12:35 AM EDT (5/16)
Length of Visible Light 15h 21m
Length of Day
14h 20m
Waxing Crescent, 35% of the Moon is Illuminated
May 16
Waxing Crescent
May 18
First Quarter
May 25
Full
May 31
Last Quarter
Jun 8
New

Hourly Weather History & Observations

Time (EDT) Temp. Heat Index Dew Point Humidity Pressure Visibility Wind Dir Wind Speed Gust Speed Precip Events Conditions
12:00 AM 72.1 °F - 66.0 °F 81% 29.76 in 10.0 mi Calm Calm - N/A   Clear
12:20 AM 73.8 °F - 66.2 °F 77% 29.76 in 10.0 mi Calm Calm - N/A   Clear
12:40 AM 72.5 °F - 66.2 °F 81% 29.76 in 10.0 mi Calm Calm - N/A   Clear
1:00 AM 72.3 °F - 66.2 °F 81% 29.76 in 10.0 mi Calm Calm - N/A   Clear
1:20 AM 74.1 °F - 65.5 °F 74% 29.76 in 10.0 mi Calm Calm - N/A   Clear
1:40 AM 70.0 °F - 65.8 °F 87% 29.76 in 10.0 mi Calm Calm - N/A   Clear
2:00 AM 68.9 °F - 66.0 °F 90% 29.76 in 10.0 mi Calm Calm - N/A   Clear
2:20 AM 69.1 °F - 66.2 °F 91% 29.76 in 10.0 mi Calm Calm - N/A   Clear
2:40 AM 68.2 °F - 66.0 °F 93% 29.75 in 10.0 mi Calm Calm - N/A   Clear
3:00 AM 67.8 °F - 65.8 °F 93% 29.75 in 10.0 mi Calm Calm - N/A   Clear
3:20 AM 67.3 °F - 65.7 °F 95% 29.76 in 10.0 mi Calm Calm - N/A   Clear
3:40 AM 66.2 °F - 65.3 °F 97% 29.75 in 10.0 mi Calm Calm - N/A   Clear
4:00 AM 65.5 °F - 65.1 °F 99% 29.76 in 10.0 mi Calm Calm - N/A   Clear
4:20 AM 66.2 °F - 65.1 °F 96% 29.76 in 10.0 mi Calm Calm - N/A   Clear
4:40 AM 65.5 °F - 65.3 °F 99% 29.76 in 10.0 mi Calm Calm - N/A   Clear
5:00 AM 63.9 °F - 63.9 °F 100% 29.76 in 10.0 mi Calm Calm - N/A   Clear
5:20 AM 63.9 °F - 63.9 °F 100% 29.77 in 10.0 mi Calm Calm - N/A   Clear
5:40 AM 63.9 °F - 63.9 °F 100% 29.78 in 10.0 mi Calm Calm - N/A   Clear
6:00 AM 63.7 °F - 63.1 °F 98% 29.78 in 10.0 mi Calm Calm - N/A   Clear
6:20 AM 63.1 °F - 63.1 °F 100% 29.79 in 10.0 mi Calm Calm - N/A   Clear
6:40 AM 63.9 °F - 63.3 °F 98% 29.80 in 10.0 mi Calm Calm - N/A   Clear
7:00 AM 64.6 °F - 63.5 °F 96% 29.81 in 10.0 mi Calm Calm - N/A   Clear
7:20 AM 66.2 °F - 64.4 °F 94% 29.81 in 10.0 mi Calm Calm - N/A   Clear
7:40 AM 67.6 °F - 64.6 °F 90% 29.82 in 10.0 mi Calm Calm - N/A   Scattered Clouds
8:00 AM 71.1 °F - 65.7 °F 83% 29.83 in 10.0 mi Calm Calm - N/A   Clear
8:15 AM 75.7 °F - 61.7 °F 62% 29.83 in 10.0 mi Calm Calm - N/A   Mostly Cloudy
9:00 AM 77.9 °F - 61.0 °F 56% 29.84 in 10.0 mi Calm Calm - N/A   Mostly Cloudy
9:20 AM 78.3 °F - 61.3 °F 56% 29.84 in 10.0 mi Calm Calm - N/A   Scattered Clouds
9:40 AM 78.8 °F - 61.0 °F 54% 29.85 in 10.0 mi WSW 4.6 mph - N/A   Clear
10:00 AM 80.2 °F 81.3 °F 61.7 °F 53% 29.84 in 10.0 mi WNW 5.8 mph - N/A   Clear
10:20 AM 81.3 °F 81.8 °F 60.1 °F 48% 29.84 in 10.0 mi NW 6.9 mph - N/A   Scattered Clouds
10:40 AM 81.0 °F 81.6 °F 60.1 °F 49% 29.84 in 10.0 mi WNW 6.9 mph - N/A   Clear
11:00 AM 81.9 °F 82.1 °F 59.2 °F 46% 29.84 in 10.0 mi WNW 8.1 mph - N/A   Scattered Clouds
11:20 AM 81.7 °F 82.0 °F 59.9 °F 47% 29.84 in 10.0 mi WSW 3.5 mph - N/A   Scattered Clouds
11:40 AM 81.3 °F 81.9 °F 60.4 °F 49% 29.85 in 10.0 mi WSW 5.8 mph - N/A   Scattered Clouds
12:00 PM 83.5 °F 83.6 °F 60.3 °F 45% 29.84 in 10.0 mi West 5.8 mph 16.1 mph N/A   Clear
12:20 PM 84.2 °F 84.6 °F 61.2 °F 46% 29.85 in 10.0 mi WSW 11.5 mph 16.1 mph N/A   Clear
12:40 PM 84.2 °F 83.7 °F 58.1 °F 41% 29.85 in 10.0 mi West 12.7 mph 21.9 mph N/A   Clear
1:00 PM 81.5 °F 81.7 °F 59.0 °F 46% 29.85 in 10.0 mi WSW 8.1 mph 21.9 mph N/A   Scattered Clouds
1:40 PM 81.7 °F 82.0 °F 59.4 °F 47% 29.83 in 10.0 mi NW 8.1 mph - N/A   Clear
2:00 PM 82.4 °F 82.7 °F 60.3 °F 47% 29.82 in 10.0 mi SW 5.8 mph - N/A   Clear
2:20 PM 83.7 °F 83.9 °F 61.0 °F 46% 29.83 in 10.0 mi West 9.2 mph - N/A   Clear
2:40 PM 83.7 °F 83.9 °F 60.6 °F 46% 29.84 in 10.0 mi WSW 11.5 mph 19.6 mph N/A   Clear
3:00 PM 82.8 °F 83.3 °F 61.0 °F 48% 29.84 in 10.0 mi WNW 15.0 mph 26.5 mph N/A   Clear
3:20 PM 83.3 °F 83.9 °F 61.5 °F 48% 29.84 in 10.0 mi WNW 12.7 mph 23.0 mph N/A   Clear
3:40 PM 82.8 °F 83.3 °F 61.3 °F 48% 29.84 in 10.0 mi West 9.2 mph 19.6 mph N/A   Clear
4:00 PM 82.2 °F 83.0 °F 62.1 °F 50% 29.84 in 10.0 mi WNW 12.7 mph 19.6 mph N/A   Clear
5:40 PM 81.3 °F 82.1 °F 60.8 °F 50% 29.84 in 10.0 mi WSW 5.8 mph - N/A   Clear
6:00 PM 80.6 °F 81.2 °F 60.1 °F 49% 29.84 in 10.0 mi WNW 3.5 mph - N/A   Clear
6:20 PM 80.8 °F 81.6 °F 61.0 °F 51% 29.84 in 10.0 mi West 3.5 mph - N/A   Clear
6:40 PM 80.2 °F 81.3 °F 61.9 °F 53% 29.84 in 10.0 mi Calm Calm - N/A   Clear
7:00 PM 80.8 °F 81.6 °F 61.3 °F 51% 29.85 in 10.0 mi WSW 4.6 mph - N/A   Clear
7:25 PM 80.2 °F 81.1 °F 60.8 °F 51% 29.86 in 10.0 mi West 9.2 mph - N/A   Clear
7:45 PM 79.7 °F - 61.2 °F 53% 29.87 in 10.0 mi WSW 5.8 mph - N/A   Clear
8:05 PM 78.8 °F - 61.3 °F 55% 29.87 in 10.0 mi SW 3.5 mph - N/A   Clear
8:25 PM 78.6 °F - 61.2 °F 55% 29.88 in 10.0 mi WSW 3.5 mph - N/A   Clear
8:45 PM 78.1 °F - 61.0 °F 56% 29.88 in 10.0 mi WSW 4.6 mph - N/A   Clear
9:05 PM 77.4 °F - 60.8 °F 57% 29.89 in 10.0 mi WSW 3.5 mph - N/A   Clear
9:25 PM 77.0 °F - 60.8 °F 57% 29.89 in 10.0 mi West 5.8 mph - N/A   Clear
9:45 PM 76.6 °F - 60.6 °F 58% 29.90 in 10.0 mi West 3.5 mph - N/A   Clear
10:05 PM 76.3 °F - 60.6 °F 58% 29.91 in 10.0 mi West 4.6 mph - N/A   Clear
10:25 PM 75.6 °F - 60.4 °F 59% 29.91 in 10.0 mi West 4.6 mph - N/A   Clear
10:45 PM 75.4 °F - 59.7 °F 58% 29.91 in 10.0 mi West 6.9 mph - N/A   Clear
11:05 PM 75.0 °F - 59.4 °F 58% 29.92 in 10.0 mi West 3.5 mph - N/A   Clear
11:25 PM 74.5 °F - 59.0 °F 58% 29.92 in 10.0 mi West 6.9 mph - N/A   Clear
11:45 PM 74.3 °F - 58.6 °F 58% 29.92 in 10.0 mi West 6.9 mph - N/A   Clear